www.pogodaiklimat.ru
ПОГОДА в Ошкоше
Время
и дата
19:53 16.06
20:53 16.06
21:53 16.06
22:53 16.06
23:53 16.06
00:53 17.06
01:53 17.06
02:53 17.06
03:53 17.06
04:53 17.06
05:53 17.06
06:53 17.06
07:37 17.06
07:53 17.06
08:53 17.06
09:53 17.06
10:16 17.06
10:53 17.06
11:53 17.06
12:53 17.06
13:53 17.06
14:53 17.06
15:53 17.06
16:21 17.06
16:36 17.06
16:53 17.06
17:53 17.06
18:00 17.06
18:20 17.06
18:31 17.06
18:53 17.06
19:10 17.06
19:17 17.06
19:41 17.06
19:53 17.06
20:46 17.06
20:53 17.06
20:56 17.06
21:06 17.06
21:34 17.06
21:53 17.06
22:08 17.06
22:18 17.06
22:22 17.06
22:35 17.06
22:41 17.06
22:49 17.06
22:53 17.06
Ветер
(напр.,м/с)
Видим. Явления Облачность Т
(С)
Тd
(С)
f
(%)
Тe
(С)
Тes
(С)
Комфортность P
(гПа)
Po
(гПа)
Тmin
(С)
Tmax
(С)
R
(мм)
R24
(мм)
S
(см)
ЮВ 1 16 км ясно +19.4 +8.9 51 +21 +21 комфорт 1015.7 987.2
ЮВ 2 16 км ясно +18.3 +7.2 48 +18 +18 1015.9 987.5
Ю 1 16 км ясно +15.6 +4.4 47 +15 +15 1016.1 987.5
Ю 1 16 км ясно +14.4 +4.4 51 +14 +14 1015.7 986.8
Ю 1 16 км ясно +13.9 +5.0 55 +13 +13 1015.1 986.5 +12.8 +23.9
Ю 1 16 км ясно +11.7 +5.6 66 +10 +10 1015.3 986.5
Ю 1 16 км ясно +12.2 +5.0 61 +11 +11 1015.3 986.5
Ю 2 16 км ясно +13.9 +5.6 57 +13 +13 1014.0 985.5
Ю 2 16 км ясно +15.0 +3.3 45 +14 +14 1013.5 985.2
Ю 3 16 км ясно +16.7 +1.1 35 +16 +16 1013.6 985.2
Ю 3 16 км ясно +18.3 +1.7 33 +18 +18 1013.0 984.9 +11.7 +18.3
Ю 2
{4}
16 км ясно +20.0 +4.4 36 +20 +21 1013.2 984.9
ЮЗ 1
{4}
0 м гроза 2/2 1950 м
[Ac]
+21.1 +6.7 39 +22 +25 комфорт 985.2
Ю 2
{4}
16 км слабый дождь 8/2 1380 м
[Ac]
+18.9 +10.0 56 +19 +21 1013.1 984.9
Ю 2 16 км 5/0 3300 м
[Ac]
+21.7 +9.4 45 +23 +26 комфорт 1013.2 984.9
Ю 3
{5}
0 м гроза 2/0 3000 м
[Ac]
+25.6 +10.0 37 +26 +29 жарко 1012.5 984.2
Ю 3 16 км 2/0 3000 м
[Ac]
+24.4 +10.6 42 +26 +31 жарко 984.2
Ю 3 16 км 5/0 3000 м
[Ac]
+25.6 +12.2 43 +27 +31 жарко 1012.5 984.2
ЮЗ 3
{4}
16 км ясно +27.8 +12.8 40 +29 +37 жарко 1011.5 983.2 +18.3 +27.8
Ю 4
{5}
16 км ясно +30.6 +13.3 35 +32 +34 жарко 1010.3 982.2
Ю 4
{6}
16 км ясно +31.7 +13.9 34 +33 +36 жарко 1009.1 980.9
Ю 4
{5}
16 км ясно +31.7 +14.4 35 +33 +35 жарко 1007.9 979.9
ЮЗ 3
{4}
16 км 2/0 3300 м
[Ac]
+29.4 +14.4 40 +31 +35 жарко 1008.1 979.9
Ю 4
{5}
0 м гроза 2/0 2850 м
[Ac]
+28.3 +15.0 44 +31 +32 душно 978.9
Ю 3
{4}
16 км 2/0 3300 м
[Ac]
+28.3 +15.6 46 +31 +34 душно 978.9
ЮЗ 2 16 км ясно +28.3 +15.6 46 +31 +35 душно 1007.3 979.3
Ю 2 16 км ясно +28.3 +16.1 48 +32 +34 душно 1007.5 979.6 +27.8 +32.2
Ю 2 0 м гроза ясно +28.3 +16.1 48 +32 +33 душно 979.6
Ю 2 16 км 2/0 3000 м
[Ac]
+27.8 +16.7 51 +31 +32 душно 979.3
ЮЗ 1 16 км гроза 5/0 2700 м
[Ac]
+27.8 +16.1 49 +31 +32 душно 979.9
Ю 1 0 м гроза 8/0 3000 м
[Ac]
+23.3 +19.4 79 +30 +31 очень
душно
1007.5 979.3
Ю 1 16 км 2/0 2850 м
[Ac]
+23.9 +18.9 74
Ю 1 0 м гроза 2/0 2700 м
[Ac]
+23.3 +19.4 79
Ю 1 16 км 2/0 3600 м
[Ac]
+23.3 +19.4 79 +30 +30 очень
душно
979.6
ЮЗ 1 16 км 2/0 3600 м
[Ac]
+22.8 +19.4 81 +29 +29 очень
душно
1007.9 979.9
З 1 0 м гроза, слабый дождь 10/2 1410 м
[Ac]
+22.8 +20.0 84 +29 +29 очень
душно
980.9
З 1 4 км гроза, дождь 10/2 1350 м
[Ac]
+22.8 +20.0 84 +29 +29 очень
душно
1009.1 980.9 4.1
З 1 5 км дождь, дымка 10/2 1350 м
[Ac]
+22.2 +20.6 91 +29 +29 очень
душно
981.2
В 1 11 км гроза со слабым дождем 8/2 1320 м
[Ac]
+22.2 +20.6 91 +29 +29 очень
душно
979.9
С 1 14 км гроза, слабый дождь 8/2 1500 м
[Ac]
+21.7 +21.1 96
СВ 1 16 км гроза, слабый дождь 10/2 1080 м
[Ac]
+22.8 +20.0 84 1008.1
С 2 6 км гроза с сильным дождем, дымка 10/5 1260 м
[Ac]
+22.8 +20.6 87
СВ 1 4 км гроза с сильным дождем, дымка 10/8 1260 м
[Ac]
+22.2 +21.1 93
В 1 6 км гроза, дождь, дымка 10/8 1470 м
[Ac]
+22.2 +20.6 91
ЮВ 3 4 км сильный дождь, дымка 10/10 1290 м +21.7 +20.0 90
В 1 5 км гроза, слабый дождь, дымка 8/8 1350 м
[Ac]
+21.7 +19.4 87
С 2 16 км гроза со слабым дождем 10/5 1410 м
[Ac]
+21.0 +19.0 88
СВ 2 16 км гроза со слабым дождем 10/5 1350 м
[Ac]
+21.7 +20.0 90 1009.2
Местоположение метеостанции Wittman Regional Airport: широта 43.9667 долгота -88.5581 высота над уровнем моря 246 м.
В архиве по умолчанию представлена погода в Ошкоше за последние 1-2 суток. Обновление информации о фактической погоде в базе происходит ежечасно! Архивные данные за месяц целиком и за предыдущие месяцы Вы можете получить, выбрав интересующий диапазон дат из раскрывающегося списка и нажав кнопку "Ввод!".
Внимание! Архив погоды МЕТАР в базе сайта по станциям, не включенным в климатический монитор, хранится не более 60 дней. Нет смысла пытаться выбрать более раннюю дату.
*Определитесь, кто Вы:
Внимание! Время в таблицах - местное (без учета летнего времени). Для получения всемирного времени необходимо вычесть поправку, которая равна -6 ч.
Смотрите также архив погоды в соседних городах и на ближайших метеорологических станциях:
Партнеры нашего сайта:      
Пояснения к столбцам:
  • Ветер - указаны скорость ветра в м/с - средняя за 10 мин, порывы в срок и между сроками (в фигурных скобках) и направление, откуда дует ветер: С - северный,
  • СВ - северо-восточный, В - восточный, ЮВ - юго-восточный, Ю - южный, ЮЗ - юго-западный, З - западный, СЗ - северо-западный.
  • Видимость - горизонтальная дальность видимости в метрах или километрах. При видимости от 1 до 10 км при отсутствии осадков обычно наблюдается дымка, при ухудшении видимости до 1 км и менее - туман. В сухую погоду видимость может ухудшаться дымом, пылью или мглою.
  • Явления - указаны атмосферные явления, наблюдавшиеся в срок или в последний час перед сроком; фигурными скобками обозначены явления, наблюдавшиеся между сроками (за 1-3 часа до срока); квадратными скобками обозначены град или гололедные отложения с указанием их диаметра в мм.
  • Облачность - указаны через наклонную черту общая и нижняя облачность в баллах и высота нижней границы облаков в метрах; квадратными скобками обозначены формы облаков: Ci - перистые, Cs - перисто-слоистые, Cc - перисто-кучевые, Ac - высококучевые, As - высокослоистые, Sc - слоисто-кучевые, Ns - слоисто-дождевые, Cu - кучевые, Cb - кучево-дождевые. Подробнее классификацию облаков см. в Атласе облаков (PDF).
  • T - Температура воздуха - температура, измеренная на высоте 2 м над землей.
  • Td - Температура точки росы - температура, при понижении до которой содержащийся в воздухе водяной пар достигнет насыщения.
  • f - Относительная влажность воздуха - влажноcть воздуха, измеренная на высоте 2 м над землей.
  • Te - Эффективная температура - температура, которую ощущает одетый по сезону человек в тени. Характеристика душности погоды. При расчете учитывается влияние влажности воздуха и скорости ветра на теплоощущения человека.
  • Tes - Эффективная температура на солнце - температура, которую ощущает человек, с поправкой на солнечный нагрев. Характеристика знойности погоды. Зависит от высоты солнца над горизонтом, облачности и скорости ветра. Ночью, в пасмурную погоду, а также при ветре 12 м/с и более поправка равна нулю.
  • P - Атмосферное давление - приведенное к уровню моря атмосферное давление.
  • Po - Атмосферное давление - измеренное на уровне метеостанции атмосферное давление.
  • Tmin - Минимальная температура - минимум температуры воздуха на высоте 2 м над землей.
  • Tmax - Максимальная температура - максимум температуры воздуха на высоте 2 м над землей.
  • R - Количество осадков - Количество выпавших осадков за период времени, мм. При наведении курсора мыши на число - период времени, за который выпало указанное количество осадков.
  • R24 - Количество осадков - Количество выпавших осадков за 24 часа, мм.
  • S - Снежный покров - Высота снежного покрова, см. При наведении курсора мыши на число - состояние снежного покрова и степень покрытия местности в баллах.